| time (UTC) | temp F | wind direction | speed knots | gust knots | rain 1hr in | rain 24hr in | rain mn in | humidity % | barometer mb |
| 20260504210005 | 55 | 71 | 3.5 | 6.1 | 0.00 | 0.00 | 0.00 | 87 | 1031.8 |
| 20260504205505 | 55 | 74 | 2.6 | 5.2 | 0.00 | 0.00 | 0.00 | 87 | 1031.8 |
| 20260504204505 | 55 | 78 | 2.6 | 5.2 | 0.00 | 0.00 | 0.00 | 88 | 1031.7 |
| 20260504203505 | 54 | 104 | 1.7 | 5.2 | 0.00 | 0.00 | 0.00 | 88 | 1031.7 |
| 20260504203005 | 54 | 98 | 2.6 | 6.1 | 0.00 | 0.00 | 0.00 | 89 | 1031.6 |
| 20260504202506 | 54 | 89 | 2.6 | 5.2 | 0.00 | 0.00 | 0.00 | 89 | 1031.6 |
| 20260504202005 | 54 | 99 | 2.6 | 4.3 | 0.00 | 0.00 | 0.00 | 89 | 1031.7 |
| 20260504201505 | 53 | 92 | 2.6 | 5.2 | 0.00 | 0.00 | 0.00 | 89 | 1031.7 |
| 20260504201006 | 53 | 86 | 3.5 | 5.2 | 0.00 | 0.00 | 0.00 | 89 | 1031.7 |
| 20260504200505 | 53 | 87 | 2.6 | 4.3 | 0.00 | 0.00 | 0.00 | 89 | 1031.7 |
| 20260504200005 | 53 | 80 | 1.7 | 2.6 | 0.00 | 0.00 | 0.00 | 89 | 1031.7 |
| 20260504195505 | 53 | 102 | 0.9 | 1.7 | 0.00 | 0.00 | 0.00 | 89 | 1031.7 |
| 20260504194005 | 53 | 78 | 1.7 | 4.3 | 0.00 | 0.00 | 0.00 | 89 | 1031.6 |
| 20260504193504 | 52 | 73 | 2.6 | 4.3 | 0.00 | 0.00 | 0.00 | 89 | 1031.8 |
| 20260504193007 | 52 | 58 | 2.6 | 5.2 | 0.00 | 0.00 | 0.00 | 89 | 1031.7 |
| 20260504192506 | 52 | 77 | 2.6 | 4.3 | 0.00 | 0.00 | 0.00 | 89 | 1031.7 |
| 20260504192005 | 52 | 74 | 1.7 | 4.3 | 0.00 | 0.00 | 0.00 | 89 | 1031.7 |
| 20260504191504 | 52 | 61 | 1.7 | 2.6 | 0.00 | 0.00 | 0.00 | 89 | 1031.6 |
| 20260504191004 | 52 | 46 | 0.9 | 2.6 | 0.00 | 0.00 | 0.00 | 89 | 1031.7 |
| 20260504184506 | 52 | 66 | 1.7 | 4.3 | 0.00 | 0.00 | 0.00 | 89 | 1031.5 |
| 20260504184005 | 52 | 67 | 2.6 | 4.3 | 0.00 | 0.00 | 0.00 | 89 | 1031.5 |
| 20260504180006 | 52 | 84 | 3.5 | 6.1 | 0.00 | 0.00 | 0.00 | 89 | 1031.6 |
| 20260504174506 | 52 | 88 | 2.6 | 6.1 | 0.00 | 0.00 | 0.00 | 89 | 1031.5 |
| 20260504173505 | 52 | 72 | 1.7 | 2.6 | 0.00 | 0.00 | 0.00 | 89 | 1031.7 |
| 20260504173006 | 52 | 89 | 2.6 | 4.3 | 0.00 | 0.00 | 0.00 | 88 | 1031.6 |
| 20260504172005 | 52 | 6 | 0.9 | 1.7 | 0.00 | 0.00 | 0.00 | 88 | 1031.5 |
| 20260504171004 | 52 | 40 | 0.9 | 2.6 | 0.00 | 0.00 | 0.00 | 89 | 1031.5 |
| 20260504151006 | 53 | 84 | 1.7 | 2.6 | 0.00 | 0.00 | 0.00 | 85 | 1031.9 |
| 20260504141006 | 54 | 185 | 0.9 | 1.7 | 0.00 | 0.00 | 0.00 | 81 | 1032.4 |
| 20260504130506 | 54 | 58 | 1.7 | 2.6 | 0.00 | 0.00 | 0.00 | 80 | 1032.8 |
| 20260504081005 | 54 | 59 | 0.9 | 1.7 | 0.00 | 0.00 | 0.00 | 81 | 1033.2 |
| 20260504050507 | 60 | 143 | 0.9 | 4.3 | 0.00 | 0.00 | 0.00 | 73 | 1031.7 |
| 20260504045008 | 61 | 141 | 1.7 | 5.2 | 0.00 | 0.00 | 0.00 | 72 | 1032.0 |
| 20260504044007 | 61 | 144 | 2.6 | 4.3 | 0.00 | 0.00 | 0.00 | 71 | 1031.8 |
| 20260504042505 | 61 | 131 | 1.7 | 2.6 | 0.00 | 0.00 | 0.00 | 69 | 1031.9 |
| 20260504042007 | 62 | 48 | 1.7 | 5.2 | 0.00 | 0.00 | 0.00 | 69 | 1031.9 |
| 20260504041505 | 62 | 122 | 2.6 | 5.2 | 0.00 | 0.00 | 0.00 | 68 | 1031.9 |
| 20260504040006 | 63 | 39 | 2.6 | 6.1 | 0.00 | 0.00 | 0.00 | 67 | 1031.9 |
| 20260504035505 | 64 | 155 | 3.5 | 6.1 | 0.00 | 0.00 | 0.00 | 66 | 1032.0 |
| 20260504035007 | 64 | 34 | 2.6 | 5.2 | 0.00 | 0.00 | 0.00 | 66 | 1031.8 |
| 20260504033506 | 63 | 48 | 3.5 | 7.8 | 0.00 | 0.00 | 0.00 | 66 | 1031.9 |
| 20260504033005 | 63 | 137 | 5.2 | 7.8 | 0.00 | 0.00 | 0.00 | 65 | 1031.9 |
| 20260504030505 | 63 | 78 | 2.6 | 7.0 | 0.00 | 0.00 | 0.00 | 67 | 1032.0 |
| 20260504030005 | 63 | 120 | 4.3 | 6.1 | 0.00 | 0.00 | 0.00 | 67 | 1032.0 |
| 20260504024506 | 63 | 41 | 1.7 | 4.3 | 0.00 | 0.00 | 0.00 | 67 | 1032.0 |
| 20260504024005 | 63 | 100 | 3.5 | 6.1 | 0.00 | 0.00 | 0.00 | 66 | 1032.1 |
| 20260504023507 | 64 | 59 | 2.6 | 7.8 | 0.00 | 0.00 | 0.00 | 65 | 1031.9 |
| 20260504023006 | 63 | 106 | 2.6 | 7.0 | 0.00 | 0.00 | 0.00 | 67 | 1032.0 |
| 20260504022505 | 63 | 102 | 2.6 | 7.8 | 0.00 | 0.00 | 0.00 | 65 | 1032.1 |
| 20260504022007 | 63 | 136 | 2.6 | 6.1 | 0.00 | 0.00 | 0.00 | 66 | 1032.1 |
| 20260504021006 | 63 | 84 | 4.3 | 7.8 | 0.00 | 0.00 | 0.00 | 66 | 1031.9 |
| 20260504020506 | 63 | 71 | 3.5 | 6.1 | 0.00 | 0.00 | 0.00 | 65 | 1032.1 |
| 20260504014007 | 63 | 128 | 5.2 | 8.7 | 0.00 | 0.00 | 0.00 | 65 | 1032.2 |
| 20260504010507 | 63 | 118 | 2.6 | 7.0 | 0.00 | 0.00 | 0.00 | 67 | 1032.7 |
| 20260504010005 | 63 | 90 | 5.2 | 7.0 | 0.00 | 0.00 | 0.00 | 66 | 1032.9 |
| 20260504005505 | 63 | 122 | 1.7 | 7.8 | 0.00 | 0.00 | 0.00 | 67 | 1032.8 |
| 20260504005007 | 63 | 111 | 4.3 | 7.0 | 0.00 | 0.00 | 0.00 | 64 | 1032.9 |
| 20260504003005 | 64 | 90 | 4.3 | 7.8 | 0.00 | 0.00 | 0.00 | 64 | 1033.0 |
| 20260504002505 | 64 | 26 | 2.6 | 4.3 | 0.00 | 0.00 | 0.00 | 64 | 1033.1 |
| 20260504002007 | 64 | 185 | 1.7 | 7.0 | 0.00 | 0.00 | 0.00 | 64 | 1032.9 |
| 20260504001005 | 64 | 96 | 4.3 | 7.8 | 0.00 | 0.00 | 0.00 | 66 | 1033.3 |
| 20260504000005 | 64 | 103 | 3.5 | 6.1 | 0.00 | 0.00 | 0.00 | 67 | 1033.4 |
| 20260503235007 | 64 | 150 | 4.3 | 7.8 | 0.00 | 0.00 | 0.00 | 64 | 1033.5 |
| 20260503234505 | 63 | 116 | 3.5 | 6.1 | 0.00 | 0.00 | 0.00 | 68 | 1033.5 |
| 20260503234005 | 63 | 92 | 2.6 | 5.2 | 0.00 | 0.00 | 0.00 | 71 | 1033.7 |
| 20260503233005 | 62 | 56 | 1.7 | 5.2 | 0.00 | 0.00 | 0.00 | 69 | 1033.7 |
| 20260503232505 | 62 | 103 | 1.7 | 4.3 | 0.00 | 0.00 | 0.00 | 69 | 1033.8 |
| 20260503232007 | 62 | 81 | 2.6 | 4.3 | 0.00 | 0.00 | 0.00 | 70 | 1033.6 |
| 20260503231005 | 62 | 122 | 2.6 | 5.2 | 0.00 | 0.00 | 0.00 | 70 | 1033.7 |
| 20260503230505 | 62 | 89 | 2.6 | 5.2 | 0.00 | 0.00 | 0.00 | 71 | 1033.7 |
| 20260503230006 | 62 | 149 | 1.7 | 4.3 | 0.00 | 0.00 | 0.00 | 70 | 1033.5 |
| 20260503225505 | 62 | 76 | 2.6 | 4.3 | 0.00 | 0.00 | 0.00 | 71 | 1033.6 |
| 20260503223505 | 61 | 202 | 1.7 | 2.6 | 0.00 | 0.00 | 0.00 | 72 | 1033.5 |
| 20260503221007 | 60 | 163 | 3.5 | 5.2 | 0.00 | 0.00 | 0.00 | 74 | 1033.5 |
| 20260503215005 | 59 | 358 | 0.9 | 1.7 | 0.00 | 0.00 | 0.00 | 81 | 1033.8 |
| 20260503214005 | 58 | 143 | 1.7 | 2.6 | 0.00 | 0.00 | 0.00 | 82 | 1033.8 |
| 20260503213505 | 58 | 23 | 0.9 | 1.7 | 0.00 | 0.00 | 0.00 | 84 | 1033.9 |
| 20260503212504 | 57 | 315 | 0.9 | 2.6 | 0.00 | 0.00 | 0.00 | 84 | 1033.9 |
| 20260503212005 | 56 | 151 | 1.7 | 2.6 | 0.00 | 0.00 | 0.00 | 85 | 1033.8 |
| 20260503211505 | 56 | 303 | 0.0 | 2.6 | 0.00 | 0.00 | 0.00 | 85 | 1033.7 |